Torna al catalogo

NUSAT-48

H. LEAVITT

AttivoScienzaSSO
NORAD 60498·PAYLOAD·🇦🇷 Argentina

Lanciato Aug 16, 2024 da Vandenberg Space Force Base

Loading…

Prossimi Passaggi (prossime 24 ore)

TLE

AggiornatoSource: Space-Track

Epoca: Sep 13, 2026, 23:14 UTC

1 60498U 24149AG  26256.96854275  .00007329  00000-0  25366-3 0  9990
2 60498  97.3868 338.0011 0002086 344.0369  16.0806 15.30167156115712

Traccia NUSAT-48 in tempo reale con AllMySat

Download on the App Store